[[{"header":{"parameterUnit":"m.s-1","parameterCategory":1,"la1":30.2991,"la2":30.254,"lo1":-89.0895,"lo2":-89.0444,"dy":0.0017,"dx":0.0017,"nx":28,"ny":28,"refTime":"2023-10-26T03:00:00:Z","depth":0,"parameterNumber":2,"parameterNumberName":"U-component_of_WINDS"},"data":[0,0,0,0,0,0,0,0,0,0,0,0,0,0,0,0,0,0,0,0,0,0,0,0,0,0,0,0,0,0,0,0,0,0,0,0,0,0,0,0,0,0,0,0,0,0,0,0,0,0,0,0,0,0,0,0,0,0,-6.0929,-6.0931,0,-6.1089,-6.1091,-6.1093,-6.1128,-6.1127,-6.1126,-6.1125,-6.1284,-6.1289,-6.1295,0,0,0,0,0,0,0,0,0,0,0,0,0,-6.0653,-6.0658,-6.0929,-6.0931,-6.0933,-6.1089,-6.1091,-6.1093,-6.1128,-6.1127,-6.1126,-6.1124,-6.1283,-6.1289,-6.1295,0,0,0,0,0,0,0,0,0,0,0,0,0,-6.0789,-6.0659,-6.0928,-6.0969,-6.0975,-6.1088,-6.1091,-6.1094,-6.1129,-6.1127,-6.1125,-6.1124,-6.1281,-6.1288,-6.1296,-6.1379,0,0,-6.132,-6.1324,0,0,0,0,0,0,0,0,-6.0781,-6.0799,-6.0961,-6.0967,-6.0973,-6.1087,-6.1052,-6.1189,-6.1129,-6.107,-6.1125,-6.1123,-6.122,-6.1233,-6.1266,-6.1386,-6.1393,-6.1321,-6.1326,-6.1329,-6.1332,0,0,0,0,0,0,0,-6.0771,-6.0792,-6.0992,-6.0964,-6.0971,-6.0979,-6.0997,-6.1078,-6.1152,-6.1075,-6.1078,-6.1097,-6.1223,-6.1258,-6.127,-6.1395,-6.1321,-6.1328,-6.1333,-6.1336,-6.1595,-6.1597,0,0,0,0,0,0,-6.0755,-6.0784,-6.0987,-6.0997,-6.0871,-6.0986,-6.1005,-6.1052,-6.1152,-6.1165,-6.1098,-6.1098,-6.1246,-6.1261,-6.1276,-6.138,-6.1329,-6.1337,-6.1341,-6.1593,-6.1595,-6.1597,0,0,0,0,0,0,-6.0749,-6.0773,-6.098,-6.0891,-6.0919,-6.0992,-6.1044,-6.1056,-6.1092,-6.1169,-6.1182,-6.1121,-6.1245,-6.1265,-6.1354,-6.1386,-6.134,-6.1347,-6.159,-6.1593,-6.1596,-6.1589,0,0,0,0,0,0,-6.0741,-6.0771,-6.0802,-6.0892,-6.0923,-6.1056,-6.1047,-6.106,-6.1106,-6.1107,-6.1194,-6.1207,-6.1245,-6.1342,-6.1362,-6.1396,-6.1354,-6.1587,-6.1592,-6.1595,-6.1586,-6.1591,-6.1596,0,0,0,0,0,-6.0731,-6.0792,-6.0804,-6.0828,-6.0965,-6.1058,-6.1075,-6.1119,-6.1108,-6.1141,-6.1192,-6.1204,-6.138,-6.1351,-6.1373,-6.1411,-6.1585,-6.159,-6.1595,-6.1584,-6.159,-6.1595,0,0,0,0,0,0,-6.0702,-6.0805,-6.0818,-6.0911,-6.0976,-6.1063,-6.1105,-6.1124,-6.1192,-6.119,-6.1241,-6.126,-6.1347,-6.1388,-6.1353,-6.1498,-6.1483,-6.1492,-6.1467,-6.1473,-6.1478,-6.1464,-6.136,0,0,0,0,0,-6.0707,-6.0775,-6.086,-6.0934,-6.0966,-6.1031,-6.1072,-6.1102,-6.117,-6.1197,-6.1253,-6.1318,-6.1389,-6.1434,-6.1503,-6.1594,-6.1614,-6.1632,-6.1636,-6.1639,-6.1646,-6.1699,-6.1708,-6.1613,-6.1613,-6.1613,0,0,-6.0716,-6.0781,-6.082,-6.093,-6.0983,-6.1052,-6.1053,-6.1124,-6.1176,-6.1207,-6.1295,-6.134,-6.1416,-6.1507,-6.155,-6.1544,-6.1678,-6.1646,-6.1648,-6.1652,-6.1705,-6.1714,-6.1722,-6.1616,-6.1616,-6.1615,0,0,-6.0768,-6.0824,-6.0892,-6.0947,-6.103,-6.1073,-6.109,-6.1177,-6.1208,-6.1298,-6.1324,-6.1386,-6.1505,-6.1559,-6.1602,-6.1681,-6.1695,-6.1703,-6.1725,-6.1776,-6.1784,-6.179,-6.1818,-6.1828,-6.171,-6.171,-6.171,0,-6.0769,-6.0874,-6.0924,-6.0996,-6.1044,-6.108,-6.1149,-6.1199,-6.1299,-6.1331,-6.1325,-6.1478,-6.1532,-6.1637,-6.1657,-6.1691,-6.1711,-6.1691,-6.1779,-6.1786,-6.1793,-6.182,-6.1831,-6.171,-6.171,-6.171,-6.171,0,-6.0871,-6.0944,-6.0989,-6.1087,-6.1141,-6.1211,-6.1272,-6.132,-6.1346,-6.1391,-6.1483,-6.155,-6.1634,-6.1662,-6.1687,-6.1772,-6.1766,-6.1769,-6.1754,-6.1802,-6.1828,-6.1839,-6.171,-6.171,-6.171,-6.171,0,0,-6.0903,-6.1033,-6.1049,-6.1095,-6.1191,-6.1248,-6.1321,-6.1406,-6.1446,-6.1516,-6.1578,-6.1682,-6.1686,-6.1735,-6.1767,-6.1812,-6.1871,-6.181,-6.1813,-6.1818,-6.197,-6.1965,-6.1976,-6.1883,-6.1885,-6.1887,-6.1963,0,-6.0966,-6.1098,-6.1148,-6.1256,-6.1325,-6.1362,-6.1426,-6.1492,-6.1537,-6.1602,-6.1651,-6.1724,-6.1724,-6.1754,-6.1801,-6.1854,-6.1902,-6.185,-6.194,-6.1943,-6.1917,-6.199,-6.1985,-6.2053,-6.1973,-6.1975,-6.1977,0,-6.1055,-6.1129,-6.1244,-6.1335,-6.1366,-6.1422,-6.1505,-6.1567,-6.1644,-6.1674,-6.1731,-6.1762,-6.184,-6.1824,-6.1933,-6.1897,-6.1938,-6.197,-6.1974,-6.1981,-6.196,-6.1998,-6.2076,-6.2085,-6.1993,-6.1992,-6.1991,0,-6.1067,-6.1195,-6.1281,-6.1319,-6.1428,-6.1467,-6.1513,-6.1589,-6.1638,-6.1711,-6.1743,-6.1824,-6.1868,-6.193,-6.1982,-6.1965,-6.2087,-6.2074,-6.2113,-6.2111,-6.2133,-6.2131,-6.2216,-6.2164,-6.2163,-6.2163,-6.2163,0,-6.113,-6.1199,-6.1288,-6.134,-6.1419,-6.1477,-6.1554,-6.1603,-6.1671,-6.1734,-6.1772,-6.183,-6.1896,-6.1964,-6.2005,-6.209,-6.2109,-6.2135,-6.2145,-6.213,-6.2127,-6.2155,-6.2151,-6.2166,-6.2165,-6.2165,-6.2164,0,-6.1154,-6.1217,-6.1313,-6.141,-6.1436,-6.1489,-6.1572,-6.1625,-6.1674,-6.1753,-6.1775,-6.1852,-6.1933,-6.1993,-6.2097,-6.2125,-6.2215,-6.2226,-6.2189,-6.2194,-6.2229,-6.2224,-6.2334,-6.2351,-6.2288,-6.2289,-6.2289,0,-6.1189,-6.1243,-6.1347,-6.1393,-6.1441,-6.1514,-6.1565,-6.1626,-6.1677,-6.1772,-6.1813,-6.1898,-6.1969,-6.2097,-6.2162,-6.2243,-6.2255,-6.2288,-6.2266,-6.2251,-6.2254,-6.2249,-6.2255,-6.2289,-6.229,-6.229,-6.229,0,-6.1244,-6.1274,-6.1346,-6.1432,-6.1492,-6.1562,-6.1631,-6.1667,-6.174,-6.1796,-6.1882,-6.1937,-6.2046,-6.213,-6.2218,-6.2266,-6.229,-6.2298,-6.2311,-6.2295,-6.2271,-6.2283,-6.2196,-6.2293,-6.2293,-6.2293,-6.2293,-6.2293,-6.1274,-6.1325,-6.1407,-6.1488,-6.1548,-6.1613,-6.1668,-6.1726,-6.1798,-6.1893,-6.1925,-6.2013,-6.2092,-6.2213,-6.2263,-6.2333,-6.2332,-6.2351,-6.2355,-6.2358,-6.2357,-6.2263,-6.235,-6.235,-6.235,-6.235,-6.235,0,-6.133,-6.1386,-6.146,-6.1558,-6.1622,-6.1644,-6.1723,-6.1775,-6.1852,-6.1925,-6.1995,-6.2094,-6.2177,-6.225,-6.2336,-6.2378,-6.2392,-6.2399,-6.2395,-6.2406,-6.2354,-6.2333,-6.2386,-6.2386,-6.2386,-6.2386,-6.2386,-6.2386,-6.1366,-6.1454,-6.1494,-6.1613,-6.1668,-6.1756,-6.18,-6.1861,-6.1919,-6.2029,-6.2098,-6.2147,-6.222,-6.2313,-6.239,-6.2409,-6.2438,-6.2442,-6.2464,-6.2413,-6.2409,-6.2404,-6.2386,-6.2449,-6.2449,-6.251,-6.2511,-6.2511]},{"header":{"parameterUnit":"m.s-1","parameterCategory":1,"la1":30.2991,"la2":30.254,"lo1":-89.0895,"lo2":-89.0444,"dy":0.0017,"dx":0.0017,"nx":28,"ny":28,"refTime":"2023-10-26T03:00:00:Z","depth":0,"parameterNumber":3,"parameterNumberName":"V-component_of_WINDS"},"data":[0,0,0,0,0,0,0,0,0,0,0,0,0,0,0,0,0,0,0,0,0,0,0,0,0,0,0,0,0,0,0,0,0,0,0,0,0,0,0,0,0,0,0,0,0,0,0,0,0,0,0,0,0,0,0,0,0,0,3.02,3.0201,0,3.0303,3.0304,3.0305,3.041,3.0411,3.0413,3.0414,3.0513,3.0514,3.0515,0,0,0,0,0,0,0,0,0,0,0,0,0,3.009,3.0091,3.02,3.0201,3.0203,3.0303,3.0304,3.0305,3.0409,3.0411,3.0413,3.0415,3.0512,3.0514,3.0516,0,0,0,0,0,0,0,0,0,0,0,0,0,3.0159,3.0092,3.02,3.0267,3.0274,3.0302,3.0304,3.0306,3.0409,3.0411,3.0413,3.0415,3.0512,3.0514,3.0516,3.0485,0,0,3.0522,3.0523,0,0,0,0,0,0,0,0,3.0155,3.0163,3.0256,3.0262,3.027,3.0346,3.0302,3.0366,3.0409,3.0357,3.0414,3.0416,3.0455,3.0462,3.0476,3.0489,3.0494,3.0522,3.0523,3.0524,3.0524,0,0,0,0,0,0,0,3.015,3.0159,3.0241,3.0257,3.0266,3.029,3.0303,3.0314,3.0393,3.0362,3.037,3.0381,3.0459,3.0474,3.0479,3.0495,3.0522,3.0524,3.0525,3.0526,3.0491,3.0489,0,0,0,0,0,0,3.0136,3.0155,3.0237,3.0244,3.0217,3.029,3.0304,3.0319,3.0393,3.0406,3.0379,3.0386,3.047,3.0477,3.0483,3.0455,3.0524,3.0526,3.0527,3.0493,3.0491,3.0489,0,0,0,0,0,0,3.0133,3.0142,3.0233,3.0201,3.0215,3.029,3.0306,3.032,3.0335,3.0406,3.042,3.038,3.0472,3.048,3.0485,3.0459,3.0527,3.0528,3.0496,3.0493,3.049,3.0395,0,0,0,0,0,0,3.0129,3.0141,3.013,3.02,3.0216,3.0234,3.0304,3.0321,3.0339,3.0348,3.0411,3.0423,3.0474,3.0481,3.0487,3.0463,3.053,3.0498,3.0494,3.0491,3.0401,3.0389,3.0379,0,0,0,0,0,3.0125,3.0097,3.0129,3.0139,3.0205,3.0232,3.0241,3.0303,3.0336,3.0327,3.0373,3.0421,3.0461,3.0481,3.0488,3.0464,3.05,3.0496,3.0491,3.0406,3.0391,3.0379,0,0,0,0,0,0,3.002,3.0108,3.0144,3.0139,3.0178,3.025,3.0239,3.0285,3.0313,3.0321,3.0394,3.0407,3.0403,3.0434,3.0455,3.044,3.0488,3.0484,3.042,3.0407,3.0397,3.039,3.0532,0,0,0,0,0,2.9996,3.0012,3.0088,3.0076,3.0094,3.0163,3.0177,3.0221,3.0263,3.028,3.0326,3.0364,3.0385,3.0398,3.0421,3.0405,3.0421,3.0393,3.0382,3.0373,3.0369,3.0366,3.0355,3.0473,3.0473,3.0473,0,0,2.9947,2.9997,3.0002,3.0056,3.0091,3.0106,3.0176,3.0187,3.0199,3.0281,3.029,3.0324,3.0371,3.0366,3.0366,3.0392,3.034,3.0367,3.0359,3.036,3.036,3.0348,3.0338,3.047,3.0471,3.0471,0,0,2.9866,2.9904,2.9901,2.9935,2.9989,3.0036,3.0035,3.0101,3.0128,3.0138,3.0201,3.0215,3.0249,3.0282,3.0302,3.0236,3.0282,3.0241,3.0184,3.018,3.0171,3.0163,3.0141,3.0132,3.0237,3.0236,3.0236,0,2.9797,2.9824,2.9892,2.9901,2.9923,3.0001,2.9997,3.0027,3.0084,3.0097,3.0126,3.0174,3.021,3.0215,3.0199,3.0213,3.0214,3.0234,3.0167,3.016,3.0153,3.0134,3.0125,3.0231,3.0232,3.0232,3.0233,0,2.9738,2.9755,2.9745,2.9803,2.9823,2.9825,2.9893,2.9906,2.9948,2.9992,3.0002,3.0049,3.0085,3.0089,3.0129,3.01,3.0115,3.0154,3.0203,3.0136,3.0119,3.0111,3.0224,3.0226,3.0227,3.0229,0,0,2.9593,2.969,2.9685,2.9714,2.978,2.9794,2.9799,2.9837,2.9848,2.9884,2.9892,2.9921,2.9959,2.9982,3.0026,3.0022,2.997,3.0063,3.0065,3.0046,2.9943,2.9915,2.9905,3.0,2.9999,2.9998,2.994,0,2.9525,2.9543,2.9606,2.9605,2.9622,2.9697,2.9703,2.9743,2.9784,2.9804,2.9848,2.9869,2.9915,2.9931,2.993,2.9976,2.995,2.9981,3.0008,3.0008,2.9996,2.9896,2.9866,2.9809,2.9934,2.9932,2.9932,0,2.9448,2.9484,2.9485,2.9554,2.9563,2.9567,2.9609,2.9626,2.9674,2.9704,2.9731,2.9782,2.9793,2.9838,2.9853,2.9873,2.9887,2.9912,2.9911,2.9917,2.9967,2.9901,2.9792,2.9784,2.9921,2.9922,2.9923,0,2.9345,2.9393,2.9402,2.9423,2.9502,2.9503,2.9536,2.9586,2.9605,2.964,2.9654,2.9688,2.9707,2.9732,2.9791,2.9818,2.98,2.985,2.9826,2.9825,2.982,2.982,2.9713,2.9826,2.9826,2.9826,2.9826,0,2.9264,2.9262,2.9357,2.9362,2.9363,2.9434,2.9433,2.9472,2.9516,2.953,2.9595,2.9606,2.9682,2.9701,2.9747,2.9754,2.9761,2.9786,2.9799,2.9782,2.9779,2.9794,2.98,2.9824,2.9824,2.9825,2.9825,0,2.915,2.9213,2.9227,2.9302,2.9321,2.9318,2.9382,2.9389,2.9435,2.9451,2.9459,2.9529,2.9556,2.9617,2.9659,2.969,2.9686,2.9707,2.9671,2.9679,2.9653,2.9655,2.9553,2.9545,2.966,2.9658,2.9657,0,2.9095,2.9096,2.9172,2.9187,2.9218,2.9241,2.9263,2.9332,2.9351,2.9407,2.9408,2.944,2.9471,2.9509,2.9563,2.9596,2.962,2.9582,2.9625,2.9609,2.9623,2.9623,2.9624,2.9573,2.9571,2.957,2.9569,0,2.8992,2.9024,2.9053,2.9094,2.9118,2.9153,2.9191,2.9199,2.9278,2.9296,2.9326,2.9349,2.9394,2.9425,2.9467,2.9499,2.9547,2.9555,2.9552,2.9535,2.9516,2.9529,2.9647,2.9557,2.9558,2.9559,2.956,2.956,2.8908,2.8914,2.8969,2.9,2.9037,2.9071,2.9083,2.9131,2.9158,2.9202,2.9241,2.9267,2.9316,2.9377,2.9406,2.9428,2.9452,2.9446,2.9445,2.9443,2.9437,2.951,2.9435,2.9435,2.9436,2.9436,2.9436,0,2.881,2.885,2.8878,2.8931,2.8956,2.9001,2.9046,2.9063,2.9086,2.9129,2.9158,2.9193,2.9224,2.9281,2.9318,2.9324,2.9347,2.9331,2.9332,2.9339,2.9412,2.9413,2.9312,2.9312,2.9312,2.9312,2.9312,2.9312,2.8763,2.8776,2.8815,2.8847,2.8886,2.8915,2.8937,2.897,2.9005,2.9041,2.9069,2.9107,2.9156,2.9196,2.9227,2.9243,2.9254,2.9232,2.9255,2.9322,2.9334,2.9345,2.9346,2.9233,2.9233,2.9181,2.9181,2.918]}]]